Location: Unspecified
(0.0000°N, 0.0000°E)
Time: 17:28:46
(UTC+00:00)

Vanguard 3 - Pass Details

Date: 10 February 2023
Orbit: 509 x 3249 km, 33.3° (Epoch: 20 March)

Event Time Altitude Azimuth Distance (km) Brightness Sun altitude
Rises 21:29:46 0° 327° (NNW) 5,222 11.4 -46.9°
Reaches altitude 10° 21:33:29 10° 338° (NNW) 4,607 10.9 -47.8°
Enters shadow 21:34:54 14° 343° (NNW) 4,419 10.8 -48.1°
Maximum altitude 21:45:22 31° 35° (NE) 4,081 - -50.5°
Drops below altitude 10° 22:01:07 10° 90° (E) 6,169 - -54.1°
Sets 22:07:02 0° 99° (E) 7,203 - -55.5°
